Weather in Fergana

Uzbekistan     40°34′58″N   68°19′41″E
temp.,
°C
wind,
m/s
gust,
m/s
humid.,
%
clouds,
%
prec.,
mm/h
press.,
hPa
HPBL,
m
4 march, thu
thu423:00+10ne23640 0.0 102240
02:00+9ese35720 0.0 1020132
05:00+8se477724 0.4 1020159
08:00+9se71270100 1.1 1019303
11:00+11s6973100 2.1 1019358
14:00+17sse454270 0.1 10171044
17:00+17sse224268 0.3 1017880
20:00+13wnw5765100 1.4 1020258
5 march, fri
fri523:00+9nw7117297 1.6 1025995
02:00+5nw5987100 6.4 1027765
05:00+6nnw3573100 6.7 1031557
08:00+5nne247691 0.0 1031349
11:00+8ne335347 0.0 1029996
14:00+11ene34400 0.0 10261332
17:00+12e44410 0.0 10241200
20:00+9ene23500 0.0 102439
6 march, sat
sat623:00+8ne34534 0.0 102179
02:00+6ne235481 0.0 101850
05:00+6nne346263 0.0 101653
08:00+6nne2443100 0.0 1014114
11:00+11nw2229100 0.0 1012262
14:00+13wnw5636100 0.0 1013411
17:00+10sw2262100 0.6 1013298
20:00+9nw1169100 1.0 101575
7 march, sun
sun723:00+9w1167100 1.1 1017111
02:00+9sse1272100 0.0 1018105
05:00+9wsw3771100 0.1 1019871
08:00+7nw3570100 0.2 1021269
11:00+9nw1263100 0.2 1021856
14:00+10sse2261100 0.0 1020924
17:00+11sse336185 0.0 1019837
20:00+9sse23710 0.0 102089
8 march, mon
mon823:00+8sse23730 0.0 101950
02:00+7sse237533 0.0 101838
05:00+7sse237367 0.0 101945
08:00+8se2269100 0.0 102052
11:00+13sse1149100 0.0 1020330
14:00+16ene2236100 0.0 10201052
17:00+16e3337100 0.0 1020908
20:00+13ene345197 0.0 102164